User: anonymous   Login
Location: Dayton
(39.7590°N, 84.1920°W)
Time: 02:50:44
(UTC-04:00)
Language:

Cosmos 1939 Rocket - Orbit

View from above orbital plane
View from above orbital plane
View from above satellite
View from above satellite

Ground track
Ground track

The orbit data is extracted from the following two-line orbital elements,

1 19046U 88032B   17266.84465763 -.00000026  00000-0  25932-5 0  9991
2 19046  97.5210 310.8606 0037660   2.6998 357.4423 15.02296578587458
Epoch (UTC): 23 September 2017 20:16:18
Eccentricity: 0.0037660
inclination: 97.5210°
perigee height: 533 km
apogee height: 586 km
right ascension of ascending node: 310.8606°
argument of perigee: 2.6998°
revolutions per day: 15.02296578
mean anomaly at epoch: 357.4423°
orbit number at epoch: 58745

The dashed part of the orbit path shows where the satellite is in the earth's shadow,  

DLR